Weather History for West Palm Beach, FL

Change the Weather History Date:

Sunday, August 24, 2014

  Actual Average Record
Temperature  
Mean Temperature 86 °F 83 °F  
Max Temperature 94 °F 90 °F 98 °F (1924)
Min Temperature 78 °F 76 °F 65 °F (1957)
Degree Days  
Heating Degree Days 0 0  
Month to date heating degree days 0 0  
Since 1 June heating degree days 0 0  
Since 1 July heating degree days 0 0  
Cooling Degree Days 21 18  
Month to date cooling degree days 464 432  
Year to date cooling degree days 2868 2580  
Since 1 June cooling degree days 1516 1471  
Growing Degree Days 36 (Base 50)    
Moisture  
Dew Point 74 °F    
Average Humidity 66    
Maximum Humidity 91    
Minimum Humidity 41    
Precipitation  
Precipitation 0.00 in 0.29 in 3.00 in (1980)
Month to date precipitation 9.37 6.03  
Year to date precipitation 42.80 38.80  
Snow  
Snow 0.00 in - - ()
Month to date snowfall 0.0  
Since 1 June snowfall 0.0  
Since 1 July snowfall 0.0  
Snow Depth 0.00 in    
Sea Level Pressure  
Sea Level Pressure 29.81 in    
Wind  
Wind Speed 6 mph (NNE)    
Max Wind Speed 15 mph    
Max Gust Speed 20 mph    
Visibility 10 miles    
Events      
T = Trace of Precipitation, MM = Missing Value Source: NWS Daily Summary

Daily Weather History Graph

Daily Weather History Graph

Search for Another Location

Airport:

Trip Planner

Search our weather history database for the weather conditions in past years. The results will help you decide how hot, cold, wet, or windy it might be!

Date:

Astronomy

Aug. 24, 2014 Rise Set
Actual Time 6:56 AM EDT 7:48 PM EDT
Civil Twilight 6:32 AM EDT 8:12 PM EDT
Nautical Twilight 6:04 AM EDT 8:40 PM EDT
Astronomical Twilight 5:35 AM EDT 9:09 PM EDT
Moon 6:05 AM EDT (8/24) 7:08 PM EDT (8/24)
Length of Visible Light 13h 39m
Length of Day
12h 52m
Waning Crescent, 1% of the Moon is Illuminated
Aug 24
Waning Crescent
Aug 25
New
Sep 2
First Quarter
Sep 8
Full
Sep 15
Last Quarter

Hourly Weather History & Observations

Time (EDT) Temp. Heat Index Dew Point Humidity Pressure Visibility Wind Dir Wind Speed Gust Speed Precip Events Conditions
12:53 AM 84.0 °F 90.2 °F 73.0 °F 69% 29.87 in 10.0 mi ESE 6.9 mph - N/A   Partly Cloudy
1:53 AM 82.9 °F 88.8 °F 73.0 °F 72% 29.86 in 10.0 mi ESE 3.5 mph - N/A   Partly Cloudy
2:53 AM 79.0 °F - 73.9 °F 84% 29.84 in 10.0 mi NW 4.6 mph - N/A   Partly Cloudy
3:53 AM 80.1 °F 85.1 °F 75.0 °F 85% 29.83 in 10.0 mi NNW 4.6 mph - N/A   Partly Cloudy
4:53 AM 78.1 °F - 75.9 °F 93% 29.82 in 10.0 mi NW 4.6 mph - N/A   Partly Cloudy
5:53 AM 78.1 °F - 75.9 °F 93% 29.81 in 10.0 mi Calm Calm - N/A   Partly Cloudy
6:53 AM 78.1 °F - 75.9 °F 93% 29.83 in 10.0 mi WNW 3.5 mph - N/A   Scattered Clouds
7:53 AM 80.1 °F 85.8 °F 77.0 °F 90% 29.84 in 10.0 mi NNW 5.8 mph - N/A   Scattered Clouds
8:53 AM 84.0 °F 92.6 °F 75.9 °F 76% 29.85 in 10.0 mi NNW 6.9 mph - N/A   Partly Cloudy
9:53 AM 87.1 °F 96.3 °F 75.0 °F 67% 29.85 in 10.0 mi NNW 6.9 mph - N/A   Scattered Clouds
10:53 AM 90.0 °F 96.9 °F 72.0 °F 55% 29.85 in 10.0 mi North 8.1 mph - N/A   Scattered Clouds
11:53 AM 91.0 °F 97.6 °F 71.1 °F 52% 29.85 in 10.0 mi Variable 5.8 mph 16.1 mph N/A   Scattered Clouds
12:53 PM 93.0 °F 96.4 °F 66.9 °F 42% 29.83 in 10.0 mi NE 11.5 mph 17.3 mph N/A   Scattered Clouds
1:53 PM 93.0 °F 96.4 °F 66.9 °F 42% 29.81 in 10.0 mi ENE 13.8 mph - N/A   Scattered Clouds
2:53 PM 91.9 °F 97.4 °F 70.0 °F 48% 29.80 in 10.0 mi ENE 9.2 mph - N/A   Scattered Clouds
3:53 PM 93.0 °F 100.7 °F 72.0 °F 50% 29.77 in 10.0 mi ENE 11.5 mph - N/A   Partly Cloudy
4:53 PM 91.0 °F 99.3 °F 73.0 °F 55% 29.75 in 10.0 mi ENE 11.5 mph - N/A   Partly Cloudy
5:53 PM 90.0 °F 97.9 °F 73.0 °F 57% 29.76 in 10.0 mi ENE 10.4 mph - N/A   Scattered Clouds
6:53 PM 88.0 °F 96.5 °F 73.9 °F 63% 29.75 in 10.0 mi NE 8.1 mph - N/A   Scattered Clouds
7:53 PM 86.0 °F 95.1 °F 75.0 °F 70% 29.75 in 10.0 mi NE 5.8 mph - N/A   Mostly Cloudy
8:53 PM 86.0 °F 95.1 °F 75.0 °F 70% 29.77 in 10.0 mi NNE 5.8 mph - N/A   Scattered Clouds
9:53 PM 86.0 °F 95.1 °F 75.0 °F 70% 29.78 in 10.0 mi NNE 3.5 mph - N/A   Partly Cloudy
10:53 PM 84.9 °F 94.1 °F 75.9 °F 74% 29.78 in 10.0 mi Calm Calm - N/A   Partly Cloudy
11:53 PM 82.0 °F 89.4 °F 75.9 °F 82% 29.79 in 10.0 mi WNW 4.6 mph - N/A   Scattered Clouds